[[{"header":{"parameterUnit":"m.s-1","parameterCategory":1,"la1":30.2991,"la2":30.254,"lo1":-89.0895,"lo2":-89.0444,"dy":0.0017,"dx":0.0017,"nx":28,"ny":28,"refTime":"2025-12-25T03:00:00:Z","depth":0,"parameterNumber":2,"parameterNumberName":"U-component_of_WINDS"},"data":[0,0,0,0,0,0,0,0,0,0,0,0,0,0,0,0,0,0,0,0,0,0,0,0,0,0,0,0,0,0,0,0,0,0,0,0,0,0,0,0,0,0,0,0,0,0,0,0,0,0,0,0,0,0,0,0,0,0,2.0676,2.0676,0,2.067,2.0669,2.0669,2.068,2.068,2.068,2.0681,2.0672,2.0671,2.0671,0,0,0,0,0,0,0,0,0,0,0,0,0,2.0697,2.0697,2.0676,2.0676,2.0676,2.067,2.0669,2.0669,2.068,2.068,2.068,2.0681,2.0672,2.0671,2.0671,0,0,0,0,0,0,0,0,0,0,0,0,0,2.0689,2.0697,2.0676,2.068,2.0681,2.067,2.0669,2.0669,2.0679,2.068,2.0681,2.0681,2.0672,2.0671,2.0671,2.0654,0,0,2.0668,2.0668,0,0,0,0,0,0,0,0,2.069,2.0688,2.068,2.068,2.068,2.0676,2.0674,2.0664,2.0679,2.068,2.0681,2.0681,2.0673,2.0672,2.0669,2.0654,2.0654,2.0668,2.0667,2.0667,2.0667,0,0,0,0,0,0,0,2.069,2.0689,2.0674,2.068,2.068,2.0683,2.0682,2.0672,2.0673,2.068,2.0681,2.068,2.0673,2.067,2.0669,2.0653,2.0668,2.0667,2.0667,2.0666,2.0627,2.0627,0,0,0,0,0,0,2.069,2.0689,2.0674,2.0673,2.0687,2.0682,2.0681,2.0677,2.0673,2.0673,2.0679,2.068,2.0671,2.067,2.0669,2.0652,2.0667,2.0666,2.0666,2.0628,2.0627,2.0627,0,0,0,0,0,0,2.0691,2.0689,2.0674,2.0682,2.068,2.0681,2.0676,2.0676,2.0674,2.0673,2.0673,2.0676,2.0672,2.067,2.0659,2.0651,2.0666,2.0665,2.0628,2.0628,2.0627,2.0615,0,0,0,0,0,0,2.0691,2.0689,2.0683,2.0681,2.0679,2.0664,2.0675,2.0676,2.0672,2.0674,2.067,2.067,2.0672,2.066,2.0658,2.065,2.0664,2.0629,2.0628,2.0627,2.0616,2.0614,2.0613,0,0,0,0,0,2.0692,2.0679,2.0682,2.068,2.0672,2.0663,2.0662,2.0665,2.0672,2.0666,2.0666,2.067,2.0652,2.0659,2.0656,2.0649,2.063,2.0628,2.0627,2.0617,2.0615,2.0613,0,0,0,0,0,0,2.0678,2.0678,2.0683,2.0668,2.0666,2.0665,2.0657,2.0662,2.0657,2.0658,2.0662,2.0661,2.0649,2.0648,2.0654,2.0634,2.0642,2.064,2.0635,2.0633,2.0631,2.0632,2.0664,0,0,0,0,0,2.0673,2.0667,2.0668,2.0655,2.0654,2.0656,2.0652,2.0655,2.0652,2.0651,2.065,2.0647,2.0641,2.0637,2.0631,2.0616,2.0617,2.061,2.0608,2.0607,2.0605,2.0599,2.0597,2.0623,2.0623,2.0623,0,0,2.0663,2.0663,2.0658,2.0652,2.0651,2.0644,2.0655,2.0647,2.0642,2.065,2.064,2.0639,2.0636,2.0623,2.0618,2.0622,2.0598,2.0605,2.0604,2.0603,2.0598,2.0596,2.0593,2.0622,2.0622,2.0622,0,0,2.0642,2.064,2.0631,2.063,2.0628,2.063,2.0628,2.0627,2.0627,2.0617,2.0624,2.0618,2.0607,2.0605,2.0603,2.0584,2.0589,2.0582,2.0572,2.0566,2.0564,2.0562,2.0557,2.0555,2.0581,2.0581,2.0581,0,2.0629,2.062,2.0625,2.0618,2.0616,2.0624,2.0615,2.0613,2.0609,2.0607,2.0612,2.06,2.0598,2.0587,2.0583,2.058,2.0578,2.0582,2.0564,2.0562,2.0561,2.0556,2.0554,2.058,2.058,2.058,2.058,0,2.0606,2.06,2.0592,2.059,2.0587,2.0579,2.0583,2.0579,2.0583,2.0584,2.0575,2.0574,2.0569,2.0566,2.0569,2.0556,2.0559,2.0564,2.0572,2.0558,2.0553,2.0551,2.0579,2.0579,2.0579,2.058,0,0,2.0574,2.0577,2.0574,2.0574,2.0574,2.0569,2.0562,2.0558,2.0556,2.0553,2.0548,2.054,2.0545,2.0543,2.0546,2.0541,2.0528,2.0547,2.0547,2.0544,2.0515,2.0512,2.0509,2.0531,2.0531,2.0531,2.0516,0,2.0554,2.0542,2.0548,2.0535,2.0531,2.054,2.0534,2.0533,2.0535,2.0531,2.0533,2.0528,2.0535,2.0534,2.0529,2.053,2.0522,2.0532,2.0527,2.0527,2.0528,2.0507,2.0503,2.0489,2.0514,2.0514,2.0513,0,2.0529,2.0527,2.0515,2.0518,2.0516,2.0511,2.0509,2.0506,2.0506,2.0507,2.0506,2.0511,2.0504,2.0513,2.0505,2.0511,2.051,2.0511,2.051,2.051,2.0519,2.0507,2.0484,2.0483,2.051,2.0511,2.0511,0,2.0509,2.0503,2.0496,2.0496,2.0499,2.0495,2.0496,2.0497,2.0495,2.0493,2.0493,2.049,2.0489,2.0487,2.0491,2.0497,2.0483,2.0492,2.0485,2.0485,2.0482,2.0482,2.0459,2.048,2.048,2.048,2.048,0,2.0486,2.0479,2.0487,2.0483,2.0475,2.0482,2.0474,2.0476,2.0477,2.0473,2.048,2.0477,2.0482,2.0479,2.0483,2.0477,2.0476,2.0477,2.0479,2.0477,2.0477,2.0476,2.0478,2.0479,2.048,2.048,2.048,0,2.0462,2.0467,2.046,2.0465,2.0466,2.046,2.0464,2.046,2.0463,2.0459,2.0458,2.0463,2.046,2.0464,2.0461,2.0464,2.0456,2.0458,2.0456,2.0457,2.0451,2.0452,2.0427,2.0425,2.0446,2.0446,2.0446,0,2.0448,2.0442,2.0447,2.0446,2.0447,2.0444,2.0443,2.045,2.0449,2.045,2.0446,2.0445,2.0443,2.0439,2.0442,2.044,2.0443,2.0435,2.0443,2.0442,2.0444,2.0445,2.0445,2.0433,2.0433,2.0433,2.0432,0,2.0422,2.0426,2.0425,2.0425,2.0424,2.0424,2.0425,2.0423,2.0431,2.0429,2.0427,2.0426,2.0425,2.0423,2.0423,2.0424,2.043,2.043,2.0429,2.0427,2.0427,2.0428,2.0452,2.043,2.0431,2.0431,2.0431,2.0431,2.0403,2.04,2.0403,2.0402,2.0404,2.0405,2.0403,2.0407,2.0405,2.0405,2.0409,2.0407,2.0409,2.041,2.041,2.0409,2.0412,2.041,2.041,2.0409,2.0409,2.0427,2.0409,2.0409,2.0409,2.0409,2.0409,0,2.0379,2.0383,2.0382,2.0384,2.0383,2.039,2.0391,2.039,2.0389,2.039,2.039,2.0389,2.0388,2.0392,2.0392,2.039,2.0393,2.039,2.039,2.0391,2.0405,2.0406,2.0388,2.0388,2.0388,2.0388,2.0388,2.0388,2.0367,2.0362,2.0367,2.0363,2.0367,2.0365,2.0366,2.0367,2.0369,2.0368,2.0368,2.0371,2.0374,2.0374,2.0374,2.0375,2.0375,2.0372,2.0374,2.0387,2.0389,2.0391,2.0393,2.0372,2.0372,2.036,2.036,2.036]},{"header":{"parameterUnit":"m.s-1","parameterCategory":1,"la1":30.2991,"la2":30.254,"lo1":-89.0895,"lo2":-89.0444,"dy":0.0017,"dx":0.0017,"nx":28,"ny":28,"refTime":"2025-12-25T03:00:00:Z","depth":0,"parameterNumber":3,"parameterNumberName":"V-component_of_WINDS"},"data":[0,0,0,0,0,0,0,0,0,0,0,0,0,0,0,0,0,0,0,0,0,0,0,0,0,0,0,0,0,0,0,0,0,0,0,0,0,0,0,0,0,0,0,0,0,0,0,0,0,0,0,0,0,0,0,0,0,0,2.9059,2.9059,0,2.9067,2.9068,2.9068,2.908,2.9081,2.9081,2.9081,2.9085,2.9085,2.9085,0,0,0,0,0,0,0,0,0,0,0,0,0,2.905,2.905,2.9059,2.9059,2.9059,2.9067,2.9068,2.9068,2.908,2.9081,2.9081,2.9081,2.9086,2.9085,2.9085,0,0,0,0,0,0,0,0,0,0,0,0,0,2.9056,2.905,2.9059,2.9067,2.9067,2.9067,2.9068,2.9068,2.908,2.9081,2.9081,2.9081,2.9086,2.9085,2.9085,2.9077,0,0,2.9085,2.9085,0,0,0,0,0,0,0,0,2.9055,2.9056,2.9065,2.9066,2.9067,2.9073,2.9066,2.9071,2.908,2.9075,2.9081,2.9082,2.9081,2.9081,2.9082,2.9077,2.9077,2.9085,2.9085,2.9085,2.9085,0,0,0,0,0,0,0,2.9055,2.9056,2.9062,2.9065,2.9066,2.9069,2.907,2.9067,2.9076,2.9076,2.9077,2.9078,2.9081,2.9082,2.9082,2.9078,2.9085,2.9085,2.9084,2.9084,2.9068,2.9068,0,0,0,0,0,0,2.9054,2.9055,2.9062,2.9062,2.9062,2.9068,2.907,2.9071,2.9076,2.9077,2.9077,2.9078,2.9082,2.9082,2.9082,2.9074,2.9085,2.9084,2.9084,2.9068,2.9068,2.9068,0,0,0,0,0,0,2.9054,2.9055,2.9061,2.9059,2.906,2.9068,2.9069,2.9071,2.9072,2.9077,2.9078,2.9077,2.9082,2.9082,2.9079,2.9074,2.9084,2.9084,2.9069,2.9068,2.9068,2.9057,0,0,0,0,0,0,2.9054,2.9054,2.9052,2.9059,2.906,2.9059,2.9069,2.9071,2.9072,2.9073,2.9077,2.9078,2.9083,2.9079,2.9079,2.9074,2.9084,2.9069,2.9069,2.9068,2.9058,2.9056,2.9055,0,0,0,0,0,2.9053,2.9047,2.9052,2.9052,2.9058,2.9059,2.9059,2.9066,2.9071,2.9069,2.9073,2.9078,2.9075,2.9079,2.9078,2.9074,2.907,2.9069,2.9068,2.9058,2.9056,2.9055,0,0,0,0,0,0,2.9037,2.9048,2.9053,2.905,2.9054,2.9061,2.9058,2.9064,2.9065,2.9066,2.9073,2.9073,2.9069,2.9071,2.9075,2.9067,2.9073,2.9072,2.9066,2.9064,2.9062,2.9062,2.9084,0,0,0,0,0,2.9034,2.9035,2.9044,2.904,2.9042,2.9049,2.905,2.9055,2.9059,2.906,2.9063,2.9065,2.9065,2.9065,2.9064,2.9058,2.9059,2.9055,2.9053,2.9052,2.9051,2.9049,2.9047,2.9065,2.9065,2.9065,0,0,2.9025,2.9032,2.9032,2.9037,2.904,2.904,2.905,2.905,2.905,2.9059,2.9057,2.906,2.9062,2.9058,2.9056,2.9059,2.9047,2.9051,2.905,2.905,2.9048,2.9046,2.9045,2.9065,2.9065,2.9065,0,0,2.9011,2.9016,2.9014,2.9018,2.9024,2.9029,2.9029,2.9036,2.9039,2.9037,2.9044,2.9044,2.9043,2.9045,2.9046,2.9034,2.9039,2.9034,2.9026,2.9024,2.9022,2.9021,2.9017,2.9016,2.9033,2.9033,2.9033,0,2.9,2.9002,2.9011,2.9011,2.9013,2.9024,2.9022,2.9024,2.9029,2.903,2.9034,2.9035,2.9037,2.9033,2.9031,2.9031,2.9031,2.9033,2.9022,2.9021,2.902,2.9016,2.9015,2.9032,2.9032,2.9032,2.9032,0,2.8988,2.8989,2.8987,2.8994,2.8996,2.8994,2.9003,2.9003,2.9009,2.9014,2.9012,2.9015,2.9017,2.9017,2.9021,2.9014,2.9016,2.9021,2.9027,2.9017,2.9014,2.9013,2.9031,2.9032,2.9032,2.9032,0,0,2.8963,2.8977,2.8976,2.898,2.8988,2.8988,2.8987,2.8991,2.8991,2.8994,2.8994,2.8994,2.8999,2.9,2.9005,2.9003,2.8995,2.9008,2.9008,2.9006,2.8988,2.8985,2.8983,2.8998,2.8998,2.8998,2.8988,0,2.895,2.8951,2.8961,2.8958,2.896,2.8971,2.897,2.8975,2.8979,2.8981,2.8985,2.8986,2.8992,2.8993,2.8991,2.8996,2.8991,2.8997,2.8997,2.8997,2.8996,2.8981,2.8978,2.8968,2.8987,2.8987,2.8987,0,2.8935,2.8941,2.8939,2.8949,2.895,2.8949,2.8954,2.8955,2.896,2.8964,2.8967,2.8973,2.8972,2.8978,2.8977,2.8981,2.8982,2.8984,2.8984,2.8984,2.8991,2.8982,2.8966,2.8964,2.8985,2.8985,2.8985,0,2.8918,2.8924,2.8925,2.8928,2.8939,2.8938,2.8943,2.8949,2.8951,2.8954,2.8955,2.8958,2.8959,2.8961,2.8968,2.8972,2.8966,2.8973,2.8969,2.8969,2.8967,2.8967,2.8951,2.8967,2.8967,2.8967,2.8967,0,2.8903,2.8902,2.8917,2.8918,2.8917,2.8927,2.8926,2.8931,2.8936,2.8937,2.8946,2.8946,2.8955,2.8956,2.8961,2.896,2.896,2.8963,2.8964,2.8962,2.8962,2.8963,2.8964,2.8966,2.8966,2.8966,2.8967,0,2.8883,2.8894,2.8895,2.8907,2.8909,2.8908,2.8918,2.8918,2.8924,2.8925,2.8926,2.8935,2.8937,2.8944,2.8947,2.895,2.8948,2.895,2.8946,2.8947,2.8943,2.8944,2.8927,2.8926,2.8942,2.8942,2.8942,0,2.8873,2.8873,2.8886,2.8888,2.8893,2.8896,2.8899,2.8909,2.8911,2.8918,2.8918,2.8921,2.8924,2.8927,2.8933,2.8935,2.8938,2.8932,2.8938,2.8937,2.8939,2.8939,2.8939,2.8931,2.8931,2.893,2.893,0,2.8855,2.8861,2.8865,2.8872,2.8876,2.8881,2.8886,2.8887,2.8899,2.8901,2.8904,2.8907,2.8912,2.8915,2.8919,2.8922,2.8928,2.8929,2.8928,2.8926,2.8924,2.8926,2.8943,2.8929,2.8929,2.8929,2.8929,2.8929,2.884,2.8841,2.8851,2.8856,2.8862,2.8867,2.8869,2.8876,2.888,2.8885,2.8891,2.8894,2.89,2.8906,2.8909,2.8911,2.8914,2.8913,2.8913,2.8912,2.8912,2.8924,2.8912,2.8912,2.8912,2.8912,2.8912,0,2.8822,2.883,2.8835,2.8844,2.8848,2.8855,2.8862,2.8865,2.8868,2.8874,2.8878,2.8882,2.8885,2.8892,2.8896,2.8896,2.8899,2.8897,2.8897,2.8898,2.8908,2.8909,2.8895,2.8895,2.8895,2.8895,2.8895,2.8895,2.8814,2.8816,2.8823,2.8829,2.8836,2.884,2.8844,2.8849,2.8854,2.8859,2.8863,2.8868,2.8875,2.888,2.8883,2.8885,2.8886,2.8883,2.8886,2.8895,2.8897,2.8899,2.8899,2.8883,2.8883,2.8875,2.8875,2.8875]}]]